Location: Remedello Sotto
(45.2500°N, 10.3667°E)
Time: 04:22:47
(UTC+00:00)

S3M - Pass Details

Date: 03 February 2023
Orbit: 948 x 1005 km, 83.0° (Epoch: 29 March)

Event Time Altitude Azimuth Distance (km) Brightness Sun altitude
Rises 18:27:20 0° 180° (S) 3,715 7.1 -21.2°
Reaches altitude 10° 18:29:51 10° 179° (S) 2,771 6.4 -21.6°
Maximum altitude 18:36:13 76° 95° (E) 1,039 3.9 -22.7°
Drops below altitude 10° 18:42:36 10° 11° (NNE) 2,781 6.3 -23.9°
Sets 18:45:08 0° 10° (N) 3,729 7.0 -24.3°
